�������l�o���
Date,Time,MP-1(��Sv/h),MP-2(��Sv/h),MP-3(��Sv/h),MP-4(��Sv/h),MP-5(��Sv/h),MP-6(��Sv/h),MP-7(��Sv/h),MP-8(��Sv/h),����,����(m/s),���J
2020/08/08,00:00,0.684,0.988,0.614,1.186,0.860,0.396,0.683,0.640,�k,1.2,�L
2020/08/08,00:10,0.685,0.988,0.615,1.189,0.860,0.395,0.683,0.639,�k,1.5,�L
2020/08/08,00:20,0.684,0.990,0.614,1.189,0.860,0.396,0.682,0.640,�k,1.5,�L
2020/08/08,00:30,0.686,0.988,0.614,1.186,0.860,0.396,0.682,0.641,�k�k��,1.5,��
2020/08/08,00:40,0.684,0.989,0.615,1.188,0.860,0.396,0.683,0.640,�k�k��,0.6,��
2020/08/08,00:50,0.685,0.988,0.614,1.190,0.861,0.396,0.683,0.641,-,CALM,��
2020/08/08,01:00,0.687,0.989,0.614,1.191,0.860,0.397,0.682,0.640,��쐼,0.8,��
2020/08/08,01:10,0.684,0.990,0.616,1.189,0.859,0.397,0.683,0.640,�쐼,0.6,��
2020/08/08,01:20,0.686,0.988,0.617,1.189,0.858,0.398,0.682,0.641,-,CALM,��
2020/08/08,01:30,0.686,0.990,0.615,1.187,0.860,0.397,0.682,0.640,��,1.5,��
2020/08/08,01:40,0.686,0.987,0.617,1.187,0.860,0.397,0.682,0.639,���k��,0.8,��
2020/08/08,01:50,0.686,0.988,0.614,1.186,0.861,0.396,0.681,0.640,���k��,1.4,��
2020/08/08,02:00,0.685,0.990,0.614,1.189,0.861,0.396,0.682,0.640,��,1.2,��
2020/08/08,02:10,0.686,0.987,0.616,1.189,0.860,0.396,0.682,0.641,�k��,0.9,��
2020/08/08,02:20,0.686,0.987,0.615,1.188,0.861,0.395,0.682,0.640,���k��,1.2,��
2020/08/08,02:30,0.685,0.990,0.615,1.188,0.861,0.395,0.682,0.641,-,CALM,��
2020/08/08,02:40,0.686,0.987,0.615,1.189,0.861,0.396,0.683,0.640,���k��,0.8,��
2020/08/08,02:50,0.686,0.988,0.614,1.187,0.860,0.398,0.682,0.639,�k�k��,1.2,�L
2020/08/08,03:00,0.686,0.990,0.615,1.188,0.859,0.396,0.682,0.642,�k�k��,1.1,��
2020/08/08,03:10,0.683,0.986,0.615,1.191,0.859,0.395,0.680,0.639,�k�k��,1.2,��
2020/08/08,03:20,0.685,0.990,0.614,1.187,0.859,0.396,0.682,0.640,�k�k��,1.7,��
2020/08/08,03:30,0.685,0.989,0.616,1.191,0.858,0.398,0.683,0.641,�k,2.0,��
2020/08/08,03:40,0.685,0.988,0.616,1.189,0.860,0.397,0.683,0.642,�k,2.3,�L
2020/08/08,03:50,0.686,0.986,0.615,1.187,0.862,0.398,0.683,0.640,�k�k��,1.9,�L
2020/08/08,04:00,0.687,0.988,0.617,1.189,0.862,0.398,0.682,0.642,�k,2.0,�L
2020/08/08,04:10,0.686,0.987,0.618,1.190,0.861,0.398,0.681,0.640,�k�k��,2.3,�L
2020/08/08,04:20,0.684,0.987,0.616,1.188,0.859,0.400,0.683,0.641,�k�k��,1.5,�L
2020/08/08,04:30,0.684,0.986,0.617,1.190,0.859,0.399,0.683,0.641,���k��,2.0,�L
2020/08/08,04:40,0.682,0.976,0.612,1.181,0.848,0.398,0.680,0.641,��쓌,6.2,�L
2020/08/08,04:50,0.670,0.953,0.605,1.158,0.832,0.393,0.674,0.636,�k��,1.5,�L
2020/08/08,05:00,0.671,0.953,0.608,1.154,0.833,0.392,0.672,0.635,�k�k��,3.0,�L
2020/08/08,05:10,0.673,0.956,0.606,1.153,0.832,0.395,0.675,0.633,�k�k��,3.6,�L
2020/08/08,05:20,0.672,0.953,0.605,1.151,0.833,0.394,0.673,0.633,�k,3.3,�L
2020/08/08,05:30,0.669,0.952,0.603,1.153,0.830,0.394,0.673,0.634,�k,3.1,��
2020/08/08,05:40,0.671,0.950,0.601,1.151,0.830,0.392,0.673,0.632,�k�k��,4.4,��
2020/08/08,05:50,0.668,0.950,0.600,1.150,0.831,0.390,0.673,0.633,�k�k��,4.0,�L
2020/08/08,06:00,0.667,0.948,0.601,1.152,0.828,0.392,0.672,0.632,�k�k��,4.5,�L
2020/08/08,06:10,0.666,0.950,0.600,1.150,0.829,0.390,0.672,0.633,�k��,5.1,��
2020/08/08,06:20,0.664,0.948,0.601,1.151,0.828,0.391,0.671,0.634,�k��,4.7,��
2020/08/08,06:30,0.667,0.950,0.600,1.150,0.828,0.391,0.672,0.635,�k�k��,3.6,��
2020/08/08,06:40,0.663,0.949,0.599,1.148,0.828,0.391,0.670,0.633,�k��,3.0,��
2020/08/08,06:50,0.665,0.949,0.598,1.152,0.828,0.389,0.672,0.634,�k�k��,2.8,��
2020/08/08,07:00,0.664,0.952,0.600,1.149,0.829,0.389,0.672,0.635,�k�k��,2.0,��
2020/08/08,07:10,0.663,0.949,0.599,1.150,0.830,0.388,0.673,0.633,�k�k��,3.7,��
2020/08/08,07:20,0.664,0.948,0.598,1.149,0.829,0.390,0.673,0.634,�k�k��,2.6,��
2020/08/08,07:30,0.665,0.948,0.599,1.147,0.827,0.388,0.671,0.634,�k,2.3,��
2020/08/08,07:40,0.664,0.949,0.599,1.150,0.827,0.390,0.671,0.633,�k,3.0,��
2020/08/08,07:50,0.663,0.949,0.598,1.150,0.828,0.388,0.672,0.632,�k�k��,2.8,��
2020/08/08,08:00,0.663,0.949,0.597,1.148,0.830,0.389,0.669,0.630,�k,4.5,��
2020/08/08,08:10,0.663,0.949,0.597,1.148,0.828,0.389,0.670,0.631,�k,5.1,��
2020/08/08,08:20,0.662,0.948,0.597,1.149,0.827,0.388,0.671,0.632,�k,5.6,��
2020/08/08,08:30,0.665,0.950,0.598,1.149,0.830,0.389,0.671,0.632,�k�k��,4.9,��
2020/08/08,08:40,0.664,0.950,0.597,1.150,0.829,0.388,0.669,0.632,�k,5.1,��
2020/08/08,08:50,0.664,0.950,0.599,1.152,0.827,0.387,0.672,0.632,�k,6.2,��
2020/08/08,09:00,0.662,0.951,0.600,1.150,0.830,0.389,0.671,0.633,�k,6.1,��
2020/08/08,09:10,0.662,0.951,0.598,1.148,0.829,0.389,0.671,0.632,�k,5.0,��
2020/08/08,09:20,0.663,0.950,0.599,1.148,0.829,0.388,0.671,0.631,�k,4.8,��
2020/08/08,09:30,0.661,0.948,0.600,1.149,0.830,0.388,0.671,0.632,�k,4.6,�L
2020/08/08,09:40,0.663,0.951,0.598,1.150,0.829,0.389,0.670,0.632,�k,3.7,��
2020/08/08,09:50,0.663,0.952,0.599,1.149,0.827,0.389,0.672,0.631,�k,4.7,�L
2020/08/08,10:00,0.665,0.951,0.599,1.153,0.829,0.389,0.672,0.632,�k,4.8,��
2020/08/08,10:10,0.665,0.950,0.599,1.150,0.830,0.390,0.671,0.632,�k,5.2,��
2020/08/08,10:20,0.664,0.953,0.600,1.151,0.830,0.387,0.673,0.632,�k,4.6,�L
2020/08/08,10:30,0.664,0.953,0.600,1.150,0.832,0.388,0.670,0.633,�k,3.9,��
2020/08/08,10:40,0.664,0.953,0.598,1.150,0.832,0.388,0.671,0.632,�k,3.3,��
2020/08/08,10:50,0.664,0.953,0.600,1.150,0.831,0.389,0.674,0.630,�k,3.5,��
2020/08/08,11:00,0.666,0.954,0.600,1.153,0.832,0.388,0.675,0.632,�k,3.2,��
2020/08/08,11:10,0.665,0.956,0.600,1.151,0.831,0.388,0.673,0.633,�k�k��,2.8,��
2020/08/08,11:20,0.665,0.955,0.600,1.152,0.833,0.389,0.673,0.632,�k�k��,2.9,��
2020/08/08,11:30,0.666,0.955,0.599,1.151,0.832,0.390,0.673,0.632,�k�k��,2.9,��
2020/08/08,11:40,0.666,0.955,0.600,1.153,0.834,0.390,0.674,0.633,�k�k��,3.8,��
2020/08/08,11:50,0.665,0.956,0.600,1.153,0.833,0.388,0.673,0.632,�k�k��,4.2,��
2020/08/08,12:00,0.665,0.956,0.601,1.150,0.833,0.389,0.673,0.632,�k�k��,3.3,��
2020/08/08,12:10,0.667,0.957,0.599,1.152,0.833,0.389,0.675,0.634,�k�k��,3.9,��
2020/08/08,12:20,0.669,0.956,0.601,1.151,0.835,0.389,0.675,0.633,�k�k��,3.9,��
2020/08/08,12:30,0.667,0.956,0.600,1.150,0.834,0.390,0.675,0.634,�k�k��,3.7,��
2020/08/08,12:40,0.667,0.957,0.602,1.151,0.834,0.389,0.673,0.633,�k�k��,4.3,��
2020/08/08,12:50,0.667,0.959,0.603,1.152,0.834,0.390,0.674,0.633,�k�k��,4.6,��
2020/08/08,13:00,0.666,0.957,0.603,1.151,0.833,0.390,0.674,0.634,�k�k��,4.7,��
2020/08/08,13:10,0.667,0.956,0.602,1.154,0.835,0.390,0.674,0.632,�k�k��,4.9,��
2020/08/08,13:20,0.667,0.956,0.602,1.154,0.837,0.390,0.676,0.633,�k�k��,3.0,��
2020/08/08,13:30,0.669,0.958,0.602,1.153,0.835,0.389,0.675,0.632,�k�k��,4.5,��
2020/08/08,13:40,0.667,0.958,0.603,1.152,0.835,0.390,0.672,0.634,�k�k��,3.2,��
2020/08/08,13:50,0.668,0.960,0.601,1.157,0.834,0.390,0.673,0.634,�k�k��,2.6,��
2020/08/08,14:00,0.666,0.961,0.603,1.153,0.838,0.391,0.675,0.633,�k��,2.6,��
2020/08/08,14:10,0.667,0.958,0.601,1.156,0.835,0.390,0.674,0.634,�k�k��,2.6,��
2020/08/08,14:20,0.667,0.956,0.602,1.154,0.837,0.389,0.675,0.634,�k��,2.3,��
2020/08/08,14:30,0.667,0.957,0.602,1.155,0.836,0.390,0.674,0.634,�k��,2.0,��
2020/08/08,14:40,0.669,0.958,0.602,1.155,0.836,0.389,0.674,0.632,�k��,2.0,��
2020/08/08,14:50,0.669,0.959,0.601,1.152,0.840,0.390,0.672,0.633,�k��,1.7,��
2020/08/08,15:00,0.666,0.958,0.603,1.157,0.836,0.390,0.674,0.632,�k��,3.1,��
2020/08/08,15:10,0.668,0.958,0.603,1.154,0.836,0.390,0.673,0.635,�k��,2.6,��
2020/08/08,15:20,0.667,0.959,0.603,1.154,0.838,0.390,0.673,0.634,�k��,2.3,��
2020/08/08,15:30,0.667,0.960,0.602,1.153,0.837,0.391,0.674,0.632,�k��,2.2,��
2020/08/08,15:40,0.668,0.960,0.604,1.155,0.837,0.391,0.676,0.633,�k��,2.5,��
2020/08/08,15:50,0.668,0.959,0.603,1.156,0.838,0.391,0.674,0.634,�k��,2.8,��
2020/08/08,16:00,0.668,0.961,0.603,1.155,0.837,0.391,0.676,0.633,�k��,2.2,��
2020/08/08,16:10,0.669,0.959,0.603,1.155,0.839,0.390,0.676,0.634,�k�k��,3.1,��
2020/08/08,16:20,0.668,0.960,0.601,1.159,0.837,0.391,0.674,0.633,�k��,3.8,��
2020/08/08,16:30,0.666,0.960,0.603,1.159,0.836,0.392,0.676,0.633,�k�k��,3.8,��
2020/08/08,16:40,0.666,0.961,0.603,1.158,0.837,0.390,0.675,0.634,�k��,3.1,��
2020/08/08,16:50,0.668,0.958,0.602,1.159,0.839,0.389,0.675,0.636,�k�k��,3.3,��
2020/08/08,17:00,0.667,0.958,0.605,1.158,0.840,0.390,0.676,0.634,�k�k��,3.3,��
2020/08/08,17:10,0.667,0.961,0.606,1.158,0.840,0.389,0.677,0.635,�k�k��,4.0,�L
2020/08/08,17:20,0.668,0.959,0.605,1.158,0.838,0.391,0.677,0.635,�k,3.3,�L
2020/08/08,17:30,0.668,0.960,0.605,1.160,0.837,0.390,0.678,0.636,�k,4.2,�L
2020/08/08,17:40,0.668,0.962,0.606,1.160,0.839,0.390,0.676,0.634,�k,3.5,�L
2020/08/08,17:50,0.667,0.960,0.604,1.160,0.839,0.389,0.677,0.636,�k�k��,2.8,�L
2020/08/08,18:00,0.667,0.960,0.605,1.159,0.834,0.389,0.672,0.635,�k,2.6,�L
2020/08/08,18:10,0.668,0.962,0.606,1.157,0.837,0.390,0.672,0.633,-,CALM,�L
2020/08/08,18:20,0.668,0.962,0.606,1.157,0.834,0.390,0.672,0.634,-,CALM,�L
2020/08/08,18:30,0.666,0.961,0.605,1.154,0.830,0.390,0.670,0.631,��,1.2,�L
2020/08/08,18:40,0.668,0.961,0.606,1.157,0.830,0.390,0.671,0.630,��,0.9,�L
2020/08/08,18:50,0.667,0.959,0.605,1.155,0.830,0.390,0.670,0.631,��쐼,1.2,�L
2020/08/08,19:00,0.666,0.959,0.605,1.156,0.831,0.389,0.671,0.631,��쓌,0.9,�L
2020/08/08,19:10,0.667,0.958,0.602,1.158,0.830,0.389,0.671,0.630,��쐼,1.4,�L
2020/08/08,19:20,0.666,0.956,0.604,1.153,0.833,0.389,0.670,0.631,��쐼,1.5,�L
2020/08/08,19:30,0.666,0.957,0.604,1.152,0.831,0.390,0.670,0.633,��,1.9,�L
2020/08/08,19:40,0.664,0.958,0.604,1.154,0.831,0.389,0.668,0.630,��,1.7,�L
2020/08/08,19:50,0.666,0.956,0.605,1.155,0.830,0.390,0.670,0.631,��,2.6,��
2020/08/08,20:00,0.665,0.956,0.603,1.153,0.831,0.388,0.671,0.632,��,2.3,��
2020/08/08,20:10,0.667,0.959,0.602,1.152,0.831,0.390,0.671,0.632,��쓌,2.0,��
2020/08/08,20:20,0.666,0.958,0.603,1.153,0.830,0.388,0.672,0.633,��쓌,2.6,��
2020/08/08,20:30,0.667,0.957,0.604,1.153,0.832,0.391,0.669,0.631,��쓌,2.6,��
2020/08/08,20:40,0.666,0.958,0.603,1.154,0.831,0.390,0.671,0.631,��쓌,2.9,��
2020/08/08,20:50,0.666,0.954,0.602,1.152,0.830,0.389,0.669,0.632,��쓌,3.4,��
2020/08/08,21:00,0.667,0.956,0.604,1.154,0.831,0.389,0.670,0.633,��,1.2,��
2020/08/08,21:10,0.665,0.956,0.601,1.153,0.830,0.389,0.670,0.633,��쐼,2.6,��
2020/08/08,21:20,0.667,0.958,0.604,1.154,0.830,0.388,0.672,0.634,��,2.5,��
2020/08/08,21:30,0.666,0.957,0.602,1.153,0.831,0.389,0.673,0.631,��,3.2,��
2020/08/08,21:40,0.665,0.955,0.603,1.153,0.831,0.390,0.672,0.633,��,4.3,��
2020/08/08,21:50,0.666,0.957,0.603,1.152,0.831,0.390,0.673,0.633,��,3.3,��
2020/08/08,22:00,0.664,0.956,0.603,1.155,0.832,0.389,0.672,0.632,��,3.8,��
2020/08/08,22:10,0.666,0.958,0.602,1.151,0.829,0.390,0.671,0.633,��,4.1,��
2020/08/08,22:20,0.667,0.955,0.603,1.152,0.830,0.391,0.672,0.633,��,3.9,��
2020/08/08,22:30,0.668,0.956,0.603,1.154,0.831,0.390,0.672,0.633,��,4.2,��
2020/08/08,22:40,0.667,0.958,0.602,1.152,0.832,0.391,0.671,0.633,��,3.9,��
2020/08/08,22:50,0.666,0.957,0.602,1.153,0.831,0.389,0.671,0.635,��,4.8,��
2020/08/08,23:00,0.666,0.955,0.601,1.152,0.833,0.391,0.672,0.632,��쓌,5.0,��
2020/08/08,23:10,0.666,0.956,0.602,1.153,0.832,0.391,0.672,0.633,��쓌,5.6,��
2020/08/08,23:20,0.667,0.956,0.604,1.153,0.832,0.390,0.672,0.634,��쓌,5.3,��
2020/08/08,23:30,0.665,0.956,0.603,1.153,0.831,0.390,0.673,0.633,��쓌,5.2,��
2020/08/08,23:40,0.666,0.956,0.603,1.154,0.832,0.390,0.672,0.632,��쓌,4.5,��
2020/08/08,23:50,0.666,0.957,0.602,1.152,0.831,0.392,0.673,0.632,��,3.9,��
